Location: Julian California
(33.0790°N, 116.6010°W)
Time: 06:09:14
(UTC-07:00)

USA 238 DEB - Pass Details

Date: 19 May 2017
Orbit: 1088 x 1124 km, 63.4° (Epoch: 14 May)

Event Time Altitude Azimuth Distance (km) Brightness Sun altitude
Rises 20:52:42 0° 324° (NW) 3,933 8.2 -13.6°
Reaches altitude 10° 20:55:26 10° 320° (NW) 2,977 7.3 -14.1°
Maximum altitude 21:02:16 53° 246° (WSW) 1,343 4.4 -15.2°
Enters shadow 21:08:53 11° 171° (S) 2,900 5.6 -16.3°
